STARLINK-3839, 52480

Orbit data source: Space-Track

STARLINK-3839, 52480 is a payload satellite owned by SpaceX/Seattle (US) in LEO that was launched on Fri, 06 May 2022 UTC via an FALCON 9 launch vehicle from the Air Force Eastern Test Range (AFETR). Payload-class satellites include a variety of spacecraft equipped with specific instruments for various scientific and technological missions. These include communications satellites like Starlink; space stations such as the ISS; scientific satellites like the Hubble; Earth observation satellites from companies like Planet Labs, Umbra, and HawkEye 360; GPS; miniature CubeSats for education and research; and military/defense satellites.

Loading next visibility...
Identifier
52480, 2022-049AF
Orbit
LEO
Country
Flag of USUS
Related business
Manufacturer
SpaceX/Seattle
Mission
Operational Commercial Communications
Bus & Motor
STARLINK, Unknown motor
Mass
297 kg wet, ~220 kg dry
Launch date (UTC)
2022-05-06 (4 years ago)
Launch vehicle
FALCON 9
Launch site
Air Force Eastern Test Range (AFETR)
Object type
Payload
Rocket body
Debris
Shape & HBR
Box + 1 Pan, 10.1 m
Radar Cross Section
13.562 m², Large (>1 m²)

Expand to show TLE details & history
Last TLE update: 11 hours ago

TLE from 11 hours ago
0 STARLINK-3839
1 52480U 22049AF  25346.98620395 -.00002940  00000-0 -16674-3 0  9992
2 52480  53.2184  88.3510 0001340 109.1995 250.9142 15.08825245199160
Epoch: 2025-12-12T23:40Z
TLE epoch observation values (Epoch: 2025-12-12T23:40:08.021Z)
Latitude
-0.00003°
Longitude
11.39759°
Altitude
540.989 km
Speed
7.593 km/s
True Right ascension
05h 53m 24s
True Declination
0° 00' 00"
Sunlit
Object was in full shadow at epoch
Visualization orbit readout
Latitude
Unknown
Longitude
Unknown
Altitude
Unknown
Speed
Unknown
Apparent Right ascension
Unknown
Apparent Declination
Unknown
Sunlit
N/A
Visualization observer readout
Local Sidereal Time
09:16:44
Azimuth
Unknown
Elevation
Unknown
Doppler factor
Unknown
Orbital elements
Apogee altitude
540.96 km
Perigee altitude
539.106 km
Semi-major axis
6,918.17 km
Eccentricity
0.00013
Inclination
53.2184°
RAAN
88.351°
Arg. of periapsis
109.1995°
True anomaly
250.89969°
Mean anomaly
250.9142°
Eccentric anomaly
250.90694°
Mean motion
3.77187 °/min
Orbital period
95.44 mins
BSTAR
-0.00016674
Loading maneuver chart data...
Computing Atmospheric mass density...
Loading historical data...
Loading historical data...
Loading historical data...
Loading historical data...
Loading historical data...
Loading historical data...
Loading historical data...

Documentation

Showing up to 5 results
|